Stations météo

réclame
Mon MeteoGroup
La Coruna, Espagne (8001): Température de l'air & dewpoint: 19.11.2017 02:00:00 - 25.11.2017 02:00:00 (CET)La Coruna, Espagne (8001): Vitesse du vent & gusts: 19.11.2017 02:00:00 - 25.11.2017 02:00:00 (CET)La Coruna, Espagne (8001): Direction du vent: 19.11.2017 02:00:00 - 25.11.2017 02:00:00 (CET)La Coruna, Espagne (8001): reduced air pressure: 19.11.2017 02:00:00 - 25.11.2017 02:00:00 (CET)La Coruna, Espagne (8001): visibility: 19.11.2017 02:00:00 - 25.11.2017 02:00:00 (CET)La Coruna, Espagne (8001): Quantités de précipitations: 19.11.2017 02:00:00 - 25.11.2017 02:00:00 (CET)
Date & Time tt [°C] td [°C] ff [km/h] ff [knt] fx [km/h] fx [knt] dd ppp [hPa] vv [km] rr [mm]
25.11.2017 02:00:00 11,5 10,2 5 3 - - NNE 1022,3 20 0,0
25.11.2017 01:00:00 11,5 10,7 9 5 - - NE 1021,5 19 -
25.11.2017 00:00:00 11,7 11,2 5 3 - - ESE 1020,8 18 0,2
24.11.2017 23:00:00 11,9 11,4 11 6 - - NE 1020,8 9 0,6
24.11.2017 22:00:00 11,9 11,3 11 6 - - NNE 1019,8 8 -
24.11.2017 21:00:00 12,0 11,5 13 7 - - N 1019,0 7 2,0
24.11.2017 20:00:00 12,4 11,9 4 2 - - NNE 1017,8 4,8 3,0
24.11.2017 19:00:00 12,7 12,4 2 1 - - NW 1017,2 3,0 -
24.11.2017 18:00:00 12,8 12,3 2 1 - - ESE 1016,8 7 0,8
24.11.2017 17:00:00 12,7 12,2 5 3 - - SE 1016,5 10 1,0
24.11.2017 16:00:00 12,6 12,0 2 1 - - NE 1016,4 0,3 -
24.11.2017 15:00:00 12,9 12,0 5 3 - - ENE 1016,6 - 2,0
24.11.2017 14:00:00 13,2 11,8 4 2 - - NNE 1016,9 6 2,0
24.11.2017 13:00:00 13,4 11,8 4 2 - - E 1017,2 10 -
24.11.2017 12:00:00 13,5 11,0 5 3 - - SSW 1017,7 2,2 1,0
24.11.2017 11:00:00 13,4 10,9 5 3 - - SSE 1017,4 1,8 0,4
24.11.2017 10:00:00 13,4 11,5 9 5 - - S 1017,0 12 -
24.11.2017 09:00:00 12,9 11,3 4 2 - - SE 1016,5 1,5 0,0
24.11.2017 08:00:00 12,9 11,5 5 3 - - S 1015,6 1,4 0,0
24.11.2017 07:00:00 12,8 11,5 8 4 - - SSE 1015,2 20 -
24.11.2017 06:00:00 12,8 11,7 13 7 - - SSE 1014,8 20 0,0
24.11.2017 05:00:00 13,3 11,5 8 4 - - SE 1014,7 20 0,4
24.11.2017 04:00:00 13,8 11,1 5 3 - - S 1014,5 20 -
24.11.2017 03:00:00 13,8 11,1 11 6 - - SW 1014,4 20 0,0
24.11.2017 02:00:00 13,3 11,7 13 7 - - SW 1014,3 20 0,2
24.11.2017 01:00:00 13,4 12,3 11 6 - - W 1014,3 9 -
24.11.2017 00:00:00 14,1 12,8 13 7 - - W 1014,5 14 0,0
23.11.2017 23:00:00 14,1 13,1 15 8 - - WSW 1014,1 16 0,0
23.11.2017 22:00:00 14,4 12,6 13 7 - - W 1014,2 19 -
23.11.2017 21:00:00 14,5 12,4 21 11 - - W 1013,5 16 0,0
23.11.2017 20:00:00 16,8 11,9 13 7 - - SW 1012,9 20 0,0
23.11.2017 19:00:00 16,8 11,9 16 9 - - S 1012,2 20 -
23.11.2017 18:00:00 17,3 12,0 13 7 - - SSW 1011,7 20 0,0
23.11.2017 17:00:00 17,9 12,1 13 7 - - SSW 1011,6 20 0,0
23.11.2017 16:00:00 18,4 11,7 16 9 - - SSW 1011,2 25 -
23.11.2017 15:00:00 18,3 12,3 18 10 - - SSW 1010,7 20 0,0
23.11.2017 14:00:00 18,7 12,7 16 9 - - SSW 1010,7 20 0,0
23.11.2017 13:00:00 18,9 12,4 13 7 - - S 1011,0 25 -
23.11.2017 12:00:00 18,0 12,2 16 9 - - S 1011,2 20 0,0
23.11.2017 11:00:00 17,1 12,0 16 9 - - S 1010,6 20 0,0
23.11.2017 10:00:00 15,1 12,4 4 2 - - SE 1010,3 25 -
23.11.2017 09:00:00 14,3 11,8 9 5 - - SE 1010,1 20 0,0
23.11.2017 08:00:00 14,6 11,4 8 4 - - SE 1009,5 20 0,0
23.11.2017 07:00:00 15,3 11,5 16 9 - - SSW 1008,7 20 -
23.11.2017 06:00:00 15,4 11,8 9 5 - - SSW 1008,1 19 0,0
23.11.2017 05:00:00 15,3 11,9 11 6 - - SSW 1007,3 15 0,0
23.11.2017 04:00:00 15,7 12,1 18 10 - - WSW 1006,9 20 -
23.11.2017 03:00:00 16,0 12,4 15 8 - - SW 1006,1 20 0,0
23.11.2017 02:00:00 15,9 12,1 13 7 - - SSW 1005,8 20 0,0
23.11.2017 01:00:00 16,1 11,9 16 9 - - SW 1005,6 19 -
23.11.2017 00:00:00 16,2 12,0 15 8 - - SSW 1005,3 19 0,0
22.11.2017 23:00:00 16,6 12,3 15 8 - - SW 1005,0 20 0,0
22.11.2017 22:00:00 16,6 12,7 21 11 - - SW 1004,3 20 -
22.11.2017 21:00:00 16,6 13,3 22 12 - - SW 1003,5 20 0,0
22.11.2017 20:00:00 16,1 13,0 16 9 - - SSW 1002,9 20 0,0
22.11.2017 19:00:00 15,4 12,5 21 11 - - SSW 1002,5 8 -
22.11.2017 18:00:00 16,7 11,0 22 12 81 44 WSW 1002,7 2,7 1,0
22.11.2017 17:00:00 19,0 7,7 37 20 81 44 SSW 1001,7 18 0,0
22.11.2017 16:00:00 20,3 5,1 35 19 - - SSW 1000,7 18 -
22.11.2017 15:00:00 19,7 4,6 21 11 - - S 1000,9 20 0,0
22.11.2017 14:00:00 19,1 6,6 26 14 - - S 1002,2 20 0,0
22.11.2017 13:00:00 18,5 8,5 18 10 - - SSW 1005,8 18 -
22.11.2017 12:00:00 18,2 6,7 18 10 - - S 1006,3 20 0,0
22.11.2017 11:00:00 16,9 4,9 18 10 - - S 1006,5 20 0,0
22.11.2017 10:00:00 16,6 3,6 22 12 - - S 1006,5 18 -
22.11.2017 09:00:00 16,3 3,4 22 12 - - S 1006,5 20 0,0
22.11.2017 08:00:00 16,0 4,4 24 13 - - S 1006,5 20 0,0
22.11.2017 07:00:00 15,8 6,0 22 12 - - S 1007,1 20 -
22.11.2017 06:00:00 16,0 6,7 26 14 - - S 1007,9 20 0,0
22.11.2017 05:00:00 15,9 8,1 21 11 - - S 1008,7 20 0,0
22.11.2017 04:00:00 16,2 8,4 28 15 - - SSW 1009,3 20 -
22.11.2017 03:00:00 15,7 8,9 15 8 - - S 1009,9 20 0,0
22.11.2017 02:00:00 15,0 9,6 8 4 - - S 1011,5 20 0,0
22.11.2017 01:00:00 14,6 9,0 15 8 - - S 1012,5 20 -
22.11.2017 00:00:00 14,6 8,5 11 6 - - S 1013,5 20 0,0
21.11.2017 23:00:00 14,8 7,8 13 7 - - S 1014,4 20 0,0
21.11.2017 22:00:00 15,5 6,8 22 12 - - SSW 1014,8 20 -
21.11.2017 21:00:00 15,2 3,3 13 7 - - S 1014,6 20 0,0
21.11.2017 20:00:00 15,7 3,1 18 10 - - S 1014,9 20 0,0
21.11.2017 19:00:00 16,5 2,8 5 3 - - SSE 1016,0 20 -
21.11.2017 18:00:00 18,0 3,1 4 2 - - SE 1015,8 20 0,0
21.11.2017 17:00:00 19,2 2,5 9 5 - - S 1015,9 20 0,0
21.11.2017 16:00:00 20,0 1,9 9 5 - - S 1016,2 22 -
21.11.2017 15:00:00 20,6 0,9 15 8 - - S 1016,6 20 0,0
21.11.2017 14:00:00 19,5 1,4 11 6 - - S 1017,0 20 0,0
21.11.2017 13:00:00 19,3 1,7 11 6 - - SSE 1017,6 22 -
21.11.2017 12:00:00 17,7 2,0 8 4 - - SSE 1019,1 20 0,0
21.11.2017 11:00:00 15,0 2,8 5 3 - - SE 1019,3 20 0,0
21.11.2017 10:00:00 13,0 1,6 8 4 - - ESE 1019,7 20 -
21.11.2017 09:00:00 11,7 1,6 9 5 - - SE 1019,7 20 0,0
21.11.2017 08:00:00 10,8 1,9 8 4 - - SSE 1019,7 20 0,0
21.11.2017 07:00:00 10,7 2,0 9 5 - - SE 1019,9 20 -
21.11.2017 06:00:00 11,4 2,1 9 5 - - SE 1019,9 20 0,0
21.11.2017 05:00:00 12,5 2,3 11 6 - - SSE 1020,1 20 0,0
21.11.2017 04:00:00 13,1 2,0 9 5 - - SSE 1020,2 20 -
21.11.2017 03:00:00 13,6 2,2 13 7 - - S 1020,2 20 0,0
21.11.2017 02:00:00 13,1 2,9 13 7 - - S 1020,4 20 0,0
21.11.2017 01:00:00 12,3 3,2 9 5 - - SSE 1020,7 20 -
21.11.2017 00:00:00 12,0 3,2 13 7 - - SSE 1020,8 20 0,0
20.11.2017 23:00:00 12,2 2,9 11 6 - - SSE 1021,2 20 0,0
20.11.2017 22:00:00 12,9 3,3 13 7 - - SSE 1021,5 20 -
20.11.2017 21:00:00 13,1 5,3 13 7 - - SSE 1021,6 19 0,0
20.11.2017 20:00:00 13,2 6,8 4 2 - - S 1021,8 20 0,0
20.11.2017 19:00:00 14,1 4,7 4 2 - - ESE 1021,5 15 -
20.11.2017 18:00:00 15,3 4,0 4 2 - - W 1021,1 20 0,0
20.11.2017 17:00:00 17,1 3,7 4 2 - - W 1021,1 20 0,0
20.11.2017 16:00:00 18,2 3,3 4 2 - - N 1020,9 20 -
20.11.2017 15:00:00 18,9 5,7 4 2 - - ENE 1021,1 20 0,0
20.11.2017 14:00:00 18,7 5,5 5 3 - - E 1021,2 20 0,0
20.11.2017 13:00:00 18,1 5,0 5 3 - - ESE 1022,0 25 -
20.11.2017 12:00:00 16,5 5,7 8 4 - - SSE 1022,6 0,3 -
20.11.2017 11:00:00 14,9 6,2 4 2 - - SSE 1022,8 16 0,0
20.11.2017 10:00:00 12,0 4,5 9 5 - - S 1022,6 25 -
20.11.2017 09:00:00 9,6 4,8 5 3 - - SSE 1022,4 14 0,0
20.11.2017 08:00:00 8,7 5,8 4 2 - - S 1022,5 12 0,0
20.11.2017 07:00:00 8,3 6,3 2 1 - - S 1022,3 11 -
20.11.2017 06:00:00 8,6 6,4 2 1 - - S 1022,0 12 0,0
20.11.2017 05:00:00 9,2 7,0 5 3 - - SSE 1021,7 12 0,0
20.11.2017 04:00:00 9,4 7,2 9 5 - - SSE 1021,7 11 -
20.11.2017 03:00:00 10,0 7,4 4 2 - - SE 1021,9 11 0,0
20.11.2017 02:00:00 10,1 7,9 11 6 - - SSE 1022,3 12 0,0
20.11.2017 01:00:00 10,3 7,7 5 3 - - ESE 1023,0 10 -
20.11.2017 00:00:00 11,8 8,3 5 3 - - SSE 1022,9 12 0,0
19.11.2017 23:00:00 11,6 8,3 8 4 - - SSE 1023,2 11 0,0
19.11.2017 22:00:00 12,2 7,7 2 1 - - NW 1022,9 11 -
19.11.2017 21:00:00 12,5 8,0 4 2 - - S 1022,7 12 0,0
19.11.2017 20:00:00 12,7 7,8 4 2 - - SE 1022,6 12 0,0
19.11.2017 19:00:00 13,1 7,3 8 4 - - WNW 1022,4 15 -
19.11.2017 18:00:00 13,9 7,9 2 1 - - SW 1021,8 15 0,0
19.11.2017 17:00:00 15,1 9,2 4 2 - - WNW 1021,7 13 0,0
19.11.2017 16:00:00 15,9 10,0 4 2 - - N 1021,3 25 -
19.11.2017 15:00:00 17,4 11,0 2 1 - - NNW 1021,5 15 0,0
19.11.2017 14:00:00 18,5 9,8 4 2 - - ENE 1021,9 17 0,0
19.11.2017 13:00:00 17,7 9,3 4 2 - - SE 1022,2 25 -
19.11.2017 12:00:00 15,1 7,6 8 4 - - SE 1022,6 15 0,0
19.11.2017 11:00:00 12,5 6,5 5 3 - - SE 1022,8 13 0,0
19.11.2017 10:00:00 10,3 6,3 5 3 - - SE 1022,6 25 -
19.11.2017 09:00:00 9,1 5,6 13 7 - - SSE 1022,2 12 0,0
19.11.2017 08:00:00 9,4 6,1 11 6 - - SSE 1021,7 12 0,0
19.11.2017 07:00:00 9,5 6,6 13 7 - - SSE 1021,1 11 -
19.11.2017 06:00:00 9,3 6,7 16 9 - - SSE 1021,1 8 0,0
19.11.2017 05:00:00 9,4 6,8 9 5 - - SSE 1021,3 10 0,0
19.11.2017 04:00:00 9,6 7,2 8 4 - - SE 1021,6 11 -
19.11.2017 03:00:00 9,5 7,4 9 5 - - SE 1021,5 10 0,0
19.11.2017 02:00:00 10,0 7,6 9 5 - - SE 1021,7 11 0,0

tt = Température de l'air
td = dewpoint
ff = Vitesse du vent
fx = gusts
dd = Direction du vent
ppp = reduced air pressure
vv = visibility
rr = Quantités de précipitations

stations d'obs. à proximité